Погода Бузаубай

Погода Бузаубай : погода сейчас, прогноз погоды и архив. Всё, что Вы хотите узнать о погоде Бузаубай!

Хотите узнать прогноз погоды Бузаубай? Тогда Вам сюда: Погода Бузаубай

Поиск расширенной информации на нашем сайте:

Другие новости

Новости СМИ2

Главная страница сайта

Новости сайта

03.07.2017

Напоминаем, что на нашем специализированном сайте Метеоцентр.Азия вы можете получить высокодетализированные автоматические прогнозы погоды по пунктам России, СНГ и мира в авиационном формате (включающие направление и скорость ветра, видимость, явления погоды, количество и форму облачности, нижнюю и верхнюю границу облачности).


Погода Бузаубай - сегодня

Время (UTC), дата Ветер
(°,м/с) 
Видим.   Явления Облачность Т
(°С)
Тd
(°С)
f(%) Тe
(°С)
Pmin
(гПа)
dP
(гПа)
Po
(мм)
O2
(г/м3)
Тmin Tmax R s Состояние
почвы
21 19.05.18 020 (С) н/о    ясно 
+20.2 +5.9 39 +20  1018.1  0.5  755  282           
00 20.05.18 010 (С) 10 км    3/0 верхняя 
[Ci fib]
+19.5 +6.2 42 +21  1018.7  0.5  755  283           
03 20.05.18 010 (С) 10 км    3/0 верхняя 
[Ci fib]
+22 +9.2 44 +22  1018.9  24.1  751  279           
06 20.05.18 010 (С) 10 км    3/0 верхняя 
[Ci fib]
+29.1 +11.8 34 +33  1019.2  0.5  756  273  +19.5         
09 20.05.18 060 (СВ) 10 км    6/6 1000 м 
[Cu med, cong]
+31 +11 29 +33  1017.8  -1.3  755  271           
12 20.05.18 010 (С) 10 км    8/8 1000 м 
[Cu med, cong]
+32.2 +10.6 27 +34  1016.8  -0.9  754  270           
15 20.05.18 020 (С) 10 км    9/9 1000 м 
[Cu med, cong]
+29.1 +10.3 31 +31  1016.2  -0.7  754  273    +32.9       
18 20.05.18 010 (С) н/о    3/0 средняя 
[Ac lent]
+26.2 +9.3 34 +26  1016.2  -0.1  754  276    +32.9       
21 20.05.18 010 (С) н/о    ясно 
+24 +8.5 37 +24  1016.9  0.6  754  278           
00 21.05.18 тихо ()   10 км    3/0 верхняя 
[Ci fib]
+20 +6.5 41 +20  1017.6  -0.5  750  281           
03 21.05.18 030 (СВ) 10 км    4/0 верхняя 
[Ci fib]
+22.6 +9.5 43 +23  1017.9  0.4  755  279           
06 21.05.18 040 (СВ) 10 км    3/0 верхняя 
[Ci ing]
+29.3 +11.8 34 +33  1017  -0.7  754  272  +20         
09 21.05.18 040 (СВ) 10 км    4/0 верхняя 
[Ci fib]
+31.5 +11.3 29 +34  1016.3  -0.6  754  270           
12 21.05.18 020 (С) 10 км    6/0 верхняя 
[Ci ing]
+33 +11.7 27 +36  1015.3  -0.9  753  269           
15 21.05.18 040 (СВ) 10 км    6/0 верхняя 
[Ci fib]
+29.6 +9.8 29 +30  1015.3  -0.1  753  272    +33.7       
18 21.05.18 030 (СВ) н/о    3/0 верхняя 
[Ci fib]
+23 +5.9 33 +23  1015.6  753  279    +33.7       
21 21.05.18 тихо ()   н/о    ясно 
+19.4 +4.5 37 +19  1015.4  -0.3  753  283           
00 22.05.18 тихо ()   10 км    ясно 
+15 +1.9 41 +15  1015.2  -0.4  753  287           
03 22.05.18 тихо ()   10 км    ясно 
+19.3 +6.8 44 +19  1014.9  -0.1  753  282           
06 22.05.18 090 (В) 10 км    ясно 
+29.6 +12.7 35 +34  1015.2  0.7  753  271  +15         
09 22.05.18 010 (С) 10 км    3/0 верхняя 
[Ci fib]
+34 +13 28 +39  1015.2  0.2  753  267           
12 22.05.18 030 (СВ) 10 км    3/0 верхняя 
[Ci fib]
+34.6 +12.5 26 +39  1014.5  -0.7  753  267           
15 22.05.18 360 (С) 10 км    3/0 верхняя 
[Ci fib]
+33 +12.6 29 +38  1014.5  -0.1  753  268    +35.5       
18 22.05.18 360 (С) н/о    3/0 верхняя 
[Ci fib]
+28.1 +10.3 33 +30  1015.1  0.5  753  273    +35.5       
21 22.05.18 360 (С) н/о    ясно 
+25 +9 36 +25  1015.4  0.1  753  276           
Время (UTC), дата Ветер
(°,м/с) 
Видим.   Явления Облачность Т
(°С)
Тd
(°С)
f(%) Тe
(°С)
Pmin
(гПа)
dP
(гПа)
Po
(мм)
O2
(г/м3)
Тmin Tmax R s Состояние
почвы

Для получения пояснительной информации подведите курсор к названию столбца.

ПОГОДА Бузаубай - архив

Всё, что Вы хотите узнать о погоде Бузаубай - удобно и подробно!

Выберите нужную дату (начиная с 1 января 2015* года) и нажмите кнопку "Найти".
Будут отображены архивные сводки погоды по пункту Бузаубай, начиная с указанной даты.


Отображать данные в формате CSV (для использования в таблицах Excel)


Внимание! Наш архив погоды предназначен исключительно для личного некоммерческого использования в познавательных целях. Если Вам необходимы официальные справки о состоянии погоды (для производственных, юридических, коммерческих и т.п. целей), обращайтесь в органы Росгидромета.

*Примечание: данная дата относится к архиву по метеостанциям СССР (Россия, СНГ, Балтия).
Архив по метеостанциям Зарубежной Европы и Азии (кроме Китая) хранится 10 дней, по другим регионам земного шара (Китай, Африка, Америка, Австралия, Океания) - 1 день.

Бузаубай - район местоположения метеостанции


Название, широта, долгота, высота метеостанции:
Бузаубай 41.8°ш. 62.5°д. 98 м над ур. моря [Узбекистан]

Дополнительная информация

В oтличие oт бoльшинства пoгoдных сайтoв мы публикуем пoдрoбную метеoинфoрмацию в детальнoм прoфессиoнальнoм фoрмате.

Характеристики температуры и влажнoсти вoздуха измеряются на высoте 2 м в тени вдали oт зданий и деревьев.
Скoрoсть ветра измеряется на высoте 10 м (на урoвне рoста челoвека скoрoсть ветра ниже в 1.5-2 раза). Если метеoстанция нахoдится в гoрoде или в лесу, тo скoрoсть ветра занижена на 2-4 м/с пo сравнению с oткрытым местoм. Скoрoсть ветра над акватoриями крупных рек и oзёр, а также на вершинах хoлмoв на 2-5 м/с выше, чем в oбычных услoвиях.
Атмoсфернoе давление в разных тoчках местнoсти мoжет значительнo oтличаться oт давления на метеoстанции, в зависимoсти oт услoвий рельефа (при пoдъёме на 10 м давление пoнижается примернo на 1 мм рт.ст.).